Location: McFarlands Corners
(41.4117°N, 81.3382°W)
Time: 07:54:01
(UTC+00:00)

Vanguard 1 Rocket - Pass Details

Date: 24 February 2026
Orbit: 653 x 4214 km, 34.3° (Epoch: 12 March)

Event Time Altitude Azimuth Distance (km) Brightness Sun altitude
Rises 00:51:59 0° 276° (W) 6,484 13.4 -20.0°
Reaches altitude 10° 00:57:15 10° 263° (W) 5,994 12.7 -21.0°
Maximum altitude 01:10:52 23° 220° (SW) 5,914 11.8 -23.5°
Drops below altitude 10° 01:27:51 10° 179° (S) 7,406 11.9 -26.7°
Sets 01:35:54 0° 166° (SSE) 8,321 12.1 -28.1°
